Regional Weather Roundup
Issued by NWS State College, PA

Home | Current Version | Previous Version | Graphics & Text | Print | Product List | Glossary Off
Versions: 1 2 3 4 5 6 7 8 9 10 11 12 13 14 15 16 17 18 19 20 21 22 23 24 25 26 27 28 29 30 31 32 33 34 35 36 37 38 39 40 41 42 43 44 45 46 47 48 49 50

000
ASUS41 KCTP 241510
RWRCTP

REGIONAL WEATHER ROUNDUP
NATIONAL WEATHER SERVICE STATE COLLEGE PA
1000 AM EST FRI FEB 24 2017

Note: "fair" indicates few or no clouds below 12,000 feet with no
significant weather and/or obstructions to visibility.

* = STATION THAT DOES NOT REPORT PRECIPITATION /E.G. RAIN...SNOW...ETC/
    THUNDER OR FOG.

PAZ002>004-007>009-013>016-020>023-029>032-241600-
WESTERN PENNSYLVANIA

CITY           SKY/WX    TMP DP  RH WIND       PRES   REMARKS
ERIE           CLOUDY    65  54  67 S14       29.69F
MEADVILLE      MOSUNNY   64  52  64 S10       29.74F
FRANKLIN*      SUNNY     63  54  72 S14G24    29.78F
NEW CASTLE     FAIR      65  54  67 SW9G18    29.77F
BEAVER COUNTY  SUNNY     66  52  59 SW13G21   29.78
BUTLER*        SUNNY     64  52  63 S7        29.81S
PITTSBURGH INT MOSUNNY   67  51  56 S14       29.79F
PITTSBURGH     MOSUNNY   65  48  54 S15       29.81F
INDIANA*       CLOUDY    64  52  63 SW12      29.86S
LATROBE        MOSUNNY   66  50  55 SW14      29.84S
WASHINGTON CO* SUNNY     66  52  59 S10       29.83F
$$

PAZ004>006-010>012-017>019-024>028-033>037-041-042-045-046-049>053-241600-
CENTRAL PENNSYLVANIA

CITY           SKY/WX    TMP DP  RH WIND       PRES   REMARKS
BRADFORD       CLOUDY    60  52  74 SW8G17    29.81S
DUBOIS         MOSUNNY   65  49  56 SW12G18   29.81F
CLEARFIELD       N/A    N/A N/A N/A MISG      29.84F
JOHNSTOWN      CLOUDY    62  49  62 SW10      29.86S
ALTOONA        CLOUDY    65  53  65 S8        29.87S
STATE COLLEGE  CLOUDY    61  52  72 CALM      29.86S
WILLIAMSPORT   PTSUNNY   63  52  67 E8        29.86S
SELINSGROVE    MOSUNNY   64  53  67 S10       29.88F
FT INDIANTOWN  SUNNY     61  59  92 VRB5      29.91S
CAPITAL CITY   SUNNY     67  51  56 NE5       29.90F
HARRISBURG     MOSUNNY   63  53  70 SE8       29.89F
YORK           SUNNY     65  54  67 S9        29.90S
$$

PAZ038>040-043-044-047-048-054-055-060>062-067>071-241600-
EASTERN PENNSYLVANIA

CITY           SKY/WX    TMP DP  RH WIND       PRES   REMARKS
SCRANTON       PTSUNNY   63  53  70 W9        29.88F
MOUNT POCONO   SUNNY     60  53  77 SW7       29.92F
ALLENTOWN      SUNNY     65  53  65 VRB6      29.92F
QUAKERTOWN*    SUNNY     64  55  72 SW9       29.94F
READING        SUNNY     66  55  67 SW8       29.91F
LANCASTER      SUNNY     65  56  72 S7        29.92S
COATESVILLE    SUNNY     63  55  77 VRB6      29.95S
POTTSTOWN      SUNNY     62  53  72 SE6       29.95S
BLUE BELL      SUNNY     63  54  72 S7        29.94S
DOYLESTOWN     SUNNY     63  55  75 VRB7      29.93F
WILLOW GROVE   NOT AVBL
NORTH PHILA    SUNNY     66  56  70 SW12      29.96S
PHILADELPHIA   MOSUNNY   65  54  67 SW12      29.95S
$$



USA.gov is the U.S. government's official web portal to all federal, state and local government web resources and services.